Location: Platte
(43.3870°N, 98.8440°W)
Time: 16:42:18
(UTC-05:00)

Landsat 7 - Visible Passes

Search period start: 21 August 2017 00:00
Search period end: 31 August 2017 00:00
Orbit: 701 x 703 km, 98.2° (Epoch: 21 August)

Date Brightness Start Highest point End Pass type
(mag) Time Alt. Az. Time Alt. Az. Time Alt. Az.
21 Aug 6.1 00:35:30 16° W 00:35:30 16° W 00:37:53 10° NW visible
21 Aug 5.5 22:01:05 16° E 22:02:11 18° ENE 22:05:20 10° NNE visible
21 Aug 4.4 23:39:59 54° WNW 23:39:59 54° WNW 23:44:12 10° NNW visible
22 Aug 4.3 22:44:27 42° ENE 22:44:36 42° ENE 22:49:04 10° N visible
23 Aug 5.9 00:23:21 21° WNW 00:23:21 21° WNW 00:26:11 10° NW visible
23 Aug 5.7 21:48:56 13° ENE 21:50:09 14° ENE 21:52:31 10° NNE visible
23 Aug 4.1 23:27:49 66° NW 23:27:49 66° NW 23:32:02 10° NNW visible
24 Aug 4.7 22:32:18 32° ENE 22:32:27 32° ENE 22:36:40 10° N visible
25 Aug 5.6 00:11:11 26° WNW 00:11:11 26° WNW 00:14:18 10° NW visible
25 Aug 6.0 21:37:03 10° ENE 21:38:06 11° ENE 21:39:08 10° NE visible
25 Aug 4.0 23:15:40 67° N 23:15:40 67° N 23:19:49 10° NNW visible
26 Aug 5.1 22:20:09 25° ENE 22:20:20 25° ENE 22:24:13 10° N visible
26 Aug 5.3 23:59:02 32° WNW 23:59:02 32° WNW 00:02:19 10° NNW visible
27 Aug 4.2 23:03:31 56° NNE 23:03:31 56° NNE 23:07:33 10° N visible
28 Aug 6.4 00:42:24 13° WNW 00:42:24 13° WNW 00:43:38 10° WNW visible
28 Aug 5.4 22:08:00 20° ENE 22:08:14 20° ENE 22:11:39 10° NNE visible
28 Aug 5.0 23:46:53 39° NW 23:46:53 39° NW 23:50:15 10° NNW visible
29 Aug 4.4 22:51:22 44° NE 22:51:22 44° NE 22:55:14 10° N visible
30 Aug 6.2 00:30:15 16° WNW 00:30:15 16° WNW 00:32:03 10° NW visible
30 Aug 5.6 21:55:51 16° ENE 21:56:09 16° ENE 21:58:56 10° NNE visible
30 Aug 4.8 23:34:44 44° NW 23:34:44 44° NW 23:38:07 10° NNW visible
